Back to catalog

SL-16 DEB

AliveLEO
NORAD 22645·DEBRIS·🇷🇺 Russia

Launched Mar 26, 1993 from Baikonur Cosmodrome

Loading…

Next Passes (next 24 hours)

TLE

FreshSource: Space-Track

Epoch: Sep 14, 2026, 04:08 UTC

1 22645U 93016AF  26257.17230338  .00000407  00000-0  34621-3 0  9997
2 22645  70.9863 167.2890 0167956 212.2457 146.8297 13.86819181684678

Track SL-16 DEB in real time with AllMySat

Download on the App Store